Weather History for Panama City, FL

Change the Weather History Date:

Thursday, February 21, 2013

  Actual Average Record
Temperature  
Mean Temperature 53 °F -  
Max Temperature 70 °F - 77 °F (2011)
Min Temperature 36 °F - 36 °F (2013)
Degree Days  
Heating Degree Days 12    
Cooling Degree Days 0    
Growing Degree Days 2 (Base 50)    
Moisture  
Dew Point 44 °F    
Average Humidity 66    
Maximum Humidity 97    
Minimum Humidity 34    
Precipitation  
Precipitation 0.00 in - 0.94 in (2014)
Month to date precipitation  
Year to date precipitation  
Sea Level Pressure  
Sea Level Pressure 30.07 in    
Wind  
Wind Speed 4 mph (ESE)    
Max Wind Speed 20 mph    
Max Gust Speed 33 mph    
Visibility 10 miles    
Events      
T = Trace of Precipitation, MM = Missing Value Source: NWS Daily Summary

Daily Weather History Graph

Daily Weather History Graph

Search for Another Location

Airport:

Trip Planner

Search our weather history database for the weather conditions in past years. The results will help you decide how hot, cold, wet, or windy it might be!

Date:

Astronomy

Feb. 21, 2013 Rise Set
Actual Time 7:17 AM EST 6:36 PM EST
Civil Twilight 6:53 AM EST 7:00 PM EST
Nautical Twilight 6:25 AM EST 7:28 PM EST
Astronomical Twilight 5:57 AM EST 7:56 PM EST
Moon 3:01 PM EST (2/21) 4:10 AM EST (2/21)
Length of Visible Light 12h 07m
Length of Day
11h 18m
Waxing Gibbous, 83% of the Moon is Illuminated
Feb 21
Waxing Gibbous
Feb 25
Full
Mar 4
Last Quarter
Mar 11
New
Mar 19
First Quarter

Hourly Weather History & Observations

Time (EST) Temp. Windchill Dew Point Humidity Pressure Visibility Wind Dir Wind Speed Gust Speed Precip Events Conditions
12:53 AM 39.0 °F - 35.1 °F 86% 30.14 in 10.0 mi Calm Calm - N/A   Clear
1:53 AM 37.9 °F - 34.0 °F 86% 30.12 in 10.0 mi Calm Calm - N/A   Clear
2:53 AM 37.9 °F - 35.1 °F 89% 30.11 in 10.0 mi Calm Calm - N/A   Clear
3:53 AM 36.0 °F - 32.0 °F 86% 30.10 in 10.0 mi Calm Calm - N/A   Clear
4:53 AM 37.0 °F - 32.0 °F 82% 30.09 in 10.0 mi Calm Calm - N/A   Clear
5:53 AM 39.9 °F 35.1 °F 32.0 °F 73% 30.10 in 10.0 mi NNE 6.9 mph - N/A   Clear
6:53 AM 39.9 °F 34.5 °F 32.0 °F 73% 30.12 in 10.0 mi NNE 8.1 mph - N/A   Clear
7:53 AM 43.0 °F 39.5 °F 32.0 °F 65% 30.14 in 10.0 mi NE 5.8 mph - N/A   Clear
8:53 AM 48.9 °F - 32.0 °F 52% 30.16 in 10.0 mi ENE 6.9 mph - N/A   Clear
9:53 AM 53.1 °F - 32.0 °F 45% 30.16 in 10.0 mi ENE 5.8 mph - N/A   Clear
10:53 AM 59.0 °F - 34.0 °F 39% 30.14 in 10.0 mi ENE 9.2 mph - N/A   Clear
11:53 AM 64.0 °F - 36.0 °F 35% 30.14 in 10.0 mi ENE 5.8 mph - N/A   Mostly Cloudy
12:53 PM 66.0 °F - 39.9 °F 38% 30.10 in 10.0 mi East 5.8 mph - N/A   Clear
1:53 PM 68.0 °F - 43.0 °F 40% 30.06 in 10.0 mi ESE 5.8 mph - N/A   Clear
2:53 PM 69.1 °F - 44.1 °F 40% 30.04 in 10.0 mi SSE 8.1 mph - N/A   Clear
3:53 PM 69.1 °F - 48.0 °F 47% 30.01 in 10.0 mi South 5.8 mph - N/A   Clear
4:53 PM 69.1 °F - 52.0 °F 54% 30.00 in 10.0 mi SSE 8.1 mph - N/A   Clear
5:53 PM 66.0 °F - 54.0 °F 65% 30.00 in 10.0 mi SSE 5.8 mph - N/A   Clear
6:53 PM 63.0 °F - 55.0 °F 75% 30.00 in 10.0 mi ESE 3.5 mph - N/A   Clear
7:53 PM 63.0 °F - 55.0 °F 75% 30.01 in 10.0 mi East 3.5 mph - N/A   Clear
8:53 PM 64.0 °F - 55.9 °F 75% 30.01 in 10.0 mi SE 8.1 mph - N/A   Clear
9:53 PM 63.0 °F - 57.9 °F 84% 30.02 in 10.0 mi SE 6.9 mph - N/A   Clear
10:53 PM 61.0 °F - 59.0 °F 93% 30.02 in 9.0 mi SE 5.8 mph - N/A   Clear
11:05 PM 62.6 °F - 59.0 °F 88% 29.98 in 9.0 mi SE 11.5 mph - N/A   Scattered Clouds
11:14 PM 62.6 °F - 60.8 °F 94% 29.98 in 10.0 mi SE 9.2 mph - N/A   Mostly Cloudy
11:53 PM 63.0 °F - 61.0 °F 93% 30.02 in 9.0 mi SSE 8.1 mph - N/A   Overcast